Weather Roundup
Issued by NWS Springfield, MO

Home | Current Version | Previous Version | Text Only | Print | Product List | Glossary On
Versions: 1 2 3 4 5 6 7 8 9 10 11 12 13 14 15 16 17 18 19 20 21 22 23 24 25 26 27 28 29 30 31 32 33 34 35 36 37 38 39 40 41 42 43 44 45 46 47 48 49 50
000
NZUS99 KSGF 240007
HRRSGF

HOURLY WEATHER
NATIONAL WEATHER SERVICE SPRINGFIELD MO
700 PM CDT SAT MAY 23 2015

......SGF CWA......

CITY           SKY/WX    TMP DP  RH WIND       PRES   REMARKS
SPRINGFIELD    CLOUDY    71  58  63 SE16G24   30.07F
6HR MIN TEMP:  66; 6HR MAX TEMP:  74;

JOPLIN         CLOUDY    68  66  93 E8        30.02F
6HR MIN TEMP:  67; 6HR MAX TEMP:  75; 6HR PCP:  0.11;

WEST PLAINS    MOSUNNY   70  55  59 SE7       30.15F
6HR MIN TEMP:  63; 6HR MAX TEMP:  73; 6HR PCP: TRACE;

ROLLA          PTSUNNY   68  56  65 SE8       30.13F
6HR MIN TEMP:  67; 6HR MAX TEMP:  72; 6HR PCP: TRACE;

OSAGE BEACH    CLOUDY    70  57  64 E5        30.12S
BRANSON        CLOUDY    68  63  83 SE10      30.12S

......SURROUNDING SGF CWA......

CITY           SKY/WX    TMP DP  RH WIND       PRES   REMARKS
CHANUTE        LGT RAIN  66  65  96 E10       29.99F FOG
PARSONS        LGT RAIN  68  67  96 VRB5      29.98F
COFFEYVILLE    LGT RAIN  68  67  96 SE10      29.96F FOG
EMPORIA        RAIN      59  59 100 N7        30.03F FOG
GROVE OK       CLOUDY    70  70 100 SE8G17    30.00F
ROGERS AR      LGT RAIN  71  64  78 E12       30.05F
SILOAM SPRINGS CLOUDY    68  61  77 E9        30.03F
HARRISON AR    CLOUDY    70  64  81 SE7       30.11S
NEAR YELLVILLE PTSUNNY   73  61  64 E8        30.09F

......KANSAS AND MISSOURI......

CITY           SKY/WX    TMP DP  RH WIND       PRES   REMARKS
KANSAS CTY INT LGT RAIN  65  61  87 SE12      30.07R
DOWNTOWN KC    RAIN      67  59  75 E6        30.04F
COLUMBIA       CLOUDY    69  56  62 SE6       30.12F
SEDALIA        CLOUDY    67  55  65 SE10      30.11F
ST JOSEPH      LGT RAIN  67  59  75 SE7       30.06F
ST LOUIS       CLOUDY    76  48  37 SE10      30.16F
SPIRIT OF STL  CLOUDY    74  53  48 SE3       30.14F
KIRKSVILLE     CLOUDY    70  56  61 SE9       30.13F
WICHITA        TSTM      59  57  93 E16       29.97F FOG
TOPEKA         HVY RAIN  63  62  97 E5        30.06S FOG
OLATHE         LGT RAIN  64  61  90 E9        30.04F

......TENNESSEE......

CITY           SKY/WX    TMP DP  RH WIND       PRES   REMARKS
MEMPHIS        MOSUNNY   82  54  37 SE10      30.15F
NASHVILLE      PTCLDY    79  52  38 S9        30.23F

......ARKANSAS.......

CITY           SKY/WX    TMP DP  RH WIND       PRES   REMARKS
FAYETTEVILLE   CLOUDY    71  63  75 E10       30.04F
FT SMITH       CLOUDY    75  65  70 E12       30.00F
LITTLE ROCK    PTSUNNY   79  63  57 E10       30.08F

......OKLAHOMA.......

CITY           SKY/WX    TMP DP  RH WIND       PRES   REMARKS
TULSA          LGT RAIN  69  68  96 SE10      29.93F FOG
PONCA CITY     TSTM      61  60  97 N17       29.94S
MCALESTER      LGT RAIN  73  70  90 SE7       29.95F FOG
OKLAHOMA CITY  TSTM      62  62 100 NE20G28   29.93S

......IOWA............

CITY           SKY/WX    TMP DP  RH WIND       PRES   REMARKS
DES MOINES     CLOUDY    72  53  51 S6        30.10F
QUAD CITIES    PTSUNNY   77  45  32 S10       30.14F

......ILLINOIS........

CITY           SKY/WX    TMP DP  RH WIND       PRES   REMARKS
QUINCY         CLOUDY    73  49  42 SE8       30.14F
CHICAGO        MOSUNNY   79  38  22 S10       30.18F



USA.gov is the U.S. government's official web portal to all federal, state and local government web resources and services.